This demonstration page uses our WeatherBlox Daily Observations layout. Learn more.

Left ArrowRight Arrow

Hourly Observations for September 26, 2015

Temp ( °F °C ) Dew Point ( °F °C ) Humidity (%) Winds ( mph kmh ) Pressure ( in mb ) Visibility ( mi km ) Precip ( " mm )
12:06 am 00:06 Cloudy with Mist and Fog 64 18 63 17 94 94 Calm 30.15 1021 4 6 0.00 0.00
12:16 am 00:16 Cloudy with Mist and Fog 64 18 63 17 94 94 NE 3 6 30.15 1021 4 6 0.00 0.00
12:53 am 00:53 Cloudy with Mist and Fog 64 18 63 17 94 94 NNE 3 6 30.15 1021 4 6 0.00 0.00
1:53 am 01:53 Cloudy with Mist and Fog 63 17.2 62 16.7 97 97 ENE 7 11 30.18 1022 4 6 0.00 0.00
2:53 am 02:53 Cloudy 63 17.2 59 15 87 87 ESE 9 15 30.18 1022 10 16 0.00 0.00
3:53 am 03:53 Cloudy 62 16.7 58 14.4 86 86 ESE 6 9 30.17 1022 10 16 0.00 0.00
4:53 am 04:53 Partly Cloudy 60 15.6 57 13.9 90 90 ESE 6 9 30.16 1021 10 16 0.00 0.00
5:53 am 05:53 Clear 59 15 56 13.3 90 90 E 3 6 30.16 1021 10 16 0.00 0.00
6:53 am 06:53 Clear 56 13.3 53 11.7 90 90 Calm 30.17 1022 8 13 0.00 0.00
7:53 am 07:53 Sunny with Mist and Fog 55 12.8 53 11.7 93 93 Calm 30.18 1022 4 6 0.00 0.00
8:53 am 08:53 Sunny 61 16.1 56 13.3 84 84 E 3 6 30.18 1022 9 14 0.00 0.00
9:53 am 09:53 Sunny 66 18.9 56 13.3 70 70 SE 6 9 30.18 1022 10 16 0.00 0.00
10:53 am 10:53 Sunny 69 20.6 57 13.9 66 66 SE 8 13 30.16 1022 10 16 0.00 0.00
11:53 am 11:53 Sunny 73 22.8 56 13.3 55 55 SSE 7 11 30.15 1021 10 16 0.00 0.00
12:53 pm 12:53 Sunny 77 25 56 13.3 48 48 SE 9 15 30.12 1020 10 16 0.00 0.00
1:53 pm 13:53 Sunny 77 25 54 12.2 45 45 SE 10 17 30.11 1020 10 16 0.00 0.00
2:53 pm 14:53 Partly Cloudy 79 26.1 55 12.8 44 44 ESE 7 11 30.08 1019 10 16 0.00 0.00
3:53 pm 15:53 Mostly Cloudy 80 26.7 54 12.2 41 41 S 10 17 30.05 1018 10 16 0.00 0.00
4:53 pm 16:53 Sunny 79 26.1 54 12.2 42 42 ESE 8 13 30.04 1017 10 16 0.00 0.00
5:53 pm 17:53 Mostly Sunny 79 26.1 53 11.7 41 41 S 8 13 30.03 1017 10 16 0.00 0.00
6:53 pm 18:53 Sunny 76 24.4 53 11.7 45 45 S 6 9 30.03 1017 10 16 0.00 0.00
7:53 pm 19:53 Clear 72 22.2 53 11.7 52 52 SSE 6 9 30.03 1017 10 16 0.00 0.00
8:53 pm 20:53 Clear 69 20.6 53 11.7 57 57 SE 7 11 30.03 1017 10 16 0.00 0.00
9:53 pm 21:53 Clear 67 19.4 53 11.7 61 61 SSE 8 13 30.03 1017 10 16 0.00 0.00
10:53 pm 22:53 Clear 64 17.8 51 10.6 63 63 SSE 8 13 30.03 1017 10 16 0.00 0.00
11:53 pm 23:53 Clear 62 16.7 50 10 65 65 S 6 9 30.02 1017 10 16 0.00 0.00

Powered by AerisWeather